[[{"header":{"parameterUnit":"m.s-1","parameterCategory":1,"la1":30.2991,"la2":30.254,"lo1":-89.0895,"lo2":-89.0444,"dy":0.0017,"dx":0.0017,"nx":28,"ny":28,"refTime":"2025-12-16T03:00:00:Z","depth":0,"parameterNumber":2,"parameterNumberName":"U-component_of_WINDS"},"data":[0,0,0,0,0,0,0,0,0,0,0,0,0,0,0,0,0,0,0,0,0,0,0,0,0,0,0,0,0,0,0,0,0,0,0,0,0,0,0,0,0,0,0,0,0,0,0,0,0,0,0,0,0,0,0,0,0,0,-1.6788,-1.6789,0,-1.6848,-1.6848,-1.6849,-1.6794,-1.6792,-1.6789,-1.6787,-1.6852,-1.6856,-1.6859,0,0,0,0,0,0,0,0,0,0,0,0,0,-1.6629,-1.6633,-1.6788,-1.6789,-1.679,-1.6848,-1.6848,-1.6849,-1.6794,-1.6792,-1.6789,-1.6786,-1.6851,-1.6855,-1.686,0,0,0,0,0,0,0,0,0,0,0,0,0,-1.6695,-1.6634,-1.6788,-1.6769,-1.6768,-1.6847,-1.6848,-1.6849,-1.6795,-1.6792,-1.6788,-1.6785,-1.6849,-1.6855,-1.686,-1.6962,0,0,-1.6878,-1.688,0,0,0,0,0,0,0,0,-1.6691,-1.6701,-1.6771,-1.6771,-1.6769,-1.681,-1.6816,-1.6887,-1.6796,-1.6785,-1.6787,-1.6783,-1.6841,-1.6847,-1.6866,-1.6965,-1.6968,-1.6878,-1.6882,-1.6884,-1.6886,0,0,0,0,0,0,0,-1.6687,-1.6698,-1.6812,-1.6772,-1.6771,-1.6758,-1.6764,-1.6829,-1.6831,-1.6785,-1.6782,-1.6789,-1.684,-1.686,-1.6867,-1.6969,-1.6878,-1.6883,-1.6887,-1.6889,-1.7155,-1.7159,0,0,0,0,0,0,-1.6684,-1.6694,-1.681,-1.6813,-1.6721,-1.6764,-1.677,-1.68,-1.683,-1.6831,-1.6792,-1.6786,-1.6852,-1.686,-1.6869,-1.699,-1.6884,-1.6889,-1.6893,-1.7152,-1.7156,-1.716,0,0,0,0,0,0,-1.668,-1.6694,-1.6807,-1.6753,-1.6766,-1.677,-1.6805,-1.6803,-1.6824,-1.6835,-1.6835,-1.6813,-1.685,-1.6861,-1.6939,-1.6992,-1.6892,-1.6897,-1.7147,-1.7153,-1.7158,-1.7234,0,0,0,0,0,0,-1.6676,-1.6694,-1.6732,-1.6754,-1.6769,-1.6876,-1.6808,-1.6807,-1.6833,-1.6826,-1.6854,-1.6856,-1.6848,-1.6931,-1.6945,-1.6998,-1.6902,-1.7143,-1.715,-1.7156,-1.7227,-1.7242,-1.7254,0,0,0,0,0,-1.6671,-1.6752,-1.6734,-1.6749,-1.6817,-1.6879,-1.6888,-1.6877,-1.6838,-1.6877,-1.6884,-1.6855,-1.6983,-1.6939,-1.6955,-1.701,-1.7139,-1.7148,-1.7156,-1.7221,-1.7239,-1.7254,0,0,0,0,0,0,-1.6737,-1.6754,-1.6735,-1.6826,-1.6851,-1.687,-1.6919,-1.6896,-1.6934,-1.6927,-1.6912,-1.6918,-1.7001,-1.7013,-1.6964,-1.711,-1.7055,-1.7067,-1.71,-1.7117,-1.713,-1.7126,-1.6906,0,0,0,0,0,-1.6762,-1.6811,-1.6823,-1.6902,-1.6916,-1.6915,-1.6942,-1.6931,-1.6957,-1.6968,-1.6981,-1.7009,-1.7055,-1.7086,-1.713,-1.7228,-1.7233,-1.7274,-1.7287,-1.7298,-1.7309,-1.7362,-1.738,-1.7187,-1.7187,-1.7187,0,0,-1.6815,-1.683,-1.6862,-1.6916,-1.6934,-1.6985,-1.6925,-1.6982,-1.702,-1.6977,-1.7052,-1.7062,-1.7092,-1.7181,-1.722,-1.7193,-1.7363,-1.7309,-1.7317,-1.7322,-1.7372,-1.739,-1.7406,-1.7193,-1.7192,-1.7191,0,0,-1.6937,-1.6953,-1.7021,-1.704,-1.7068,-1.7067,-1.7083,-1.7105,-1.711,-1.7185,-1.7154,-1.7199,-1.7279,-1.7302,-1.7324,-1.7453,-1.7428,-1.7468,-1.7539,-1.7591,-1.7606,-1.7619,-1.7666,-1.7683,-1.7478,-1.7478,-1.7479,0,-1.7,-1.7074,-1.7058,-1.7117,-1.7142,-1.7104,-1.7173,-1.7193,-1.7234,-1.7253,-1.7221,-1.7321,-1.7338,-1.7432,-1.7463,-1.7482,-1.7501,-1.7465,-1.7605,-1.7618,-1.763,-1.7674,-1.7692,-1.7483,-1.7483,-1.7482,-1.7482,0,-1.715,-1.7202,-1.7253,-1.7293,-1.7323,-1.7387,-1.7381,-1.7414,-1.74,-1.7402,-1.7478,-1.7497,-1.7544,-1.7565,-1.7553,-1.7657,-1.7639,-1.7607,-1.7551,-1.7654,-1.7695,-1.7712,-1.749,-1.7488,-1.7487,-1.7486,0,0,-1.7317,-1.7346,-1.7365,-1.7383,-1.7411,-1.7451,-1.7513,-1.7557,-1.7586,-1.7615,-1.7667,-1.7735,-1.7705,-1.773,-1.7719,-1.7765,-1.7866,-1.7726,-1.7727,-1.7752,-1.7982,-1.8007,-1.8027,-1.7849,-1.7852,-1.7855,-1.798,0,-1.744,-1.7546,-1.7534,-1.7635,-1.7684,-1.7648,-1.7702,-1.7725,-1.7729,-1.7771,-1.7775,-1.7824,-1.778,-1.7795,-1.7838,-1.7845,-1.7912,-1.7835,-1.7898,-1.79,-1.7892,-1.8049,-1.8075,-1.8193,-1.7996,-1.7999,-1.8001,0,-1.7599,-1.7633,-1.7739,-1.7759,-1.7779,-1.7827,-1.7867,-1.7907,-1.7933,-1.7932,-1.796,-1.7941,-1.8003,-1.7945,-1.8031,-1.7979,-1.8004,-1.8011,-1.8015,-1.8022,-1.7957,-1.806,-1.823,-1.8248,-1.8026,-1.8024,-1.8022,0,-1.7711,-1.7783,-1.7856,-1.7872,-1.7897,-1.7932,-1.7944,-1.7966,-1.7994,-1.8028,-1.8046,-1.8087,-1.8111,-1.8144,-1.8136,-1.8095,-1.8225,-1.8166,-1.8227,-1.8227,-1.8256,-1.8255,-1.8434,-1.8271,-1.8271,-1.8271,-1.827,0,-1.7851,-1.7917,-1.7907,-1.7952,-1.8025,-1.801,-1.8083,-1.8091,-1.8111,-1.8157,-1.8129,-1.8173,-1.8161,-1.8205,-1.82,-1.8272,-1.8282,-1.8284,-1.8282,-1.8287,-1.8287,-1.8304,-1.8296,-1.8275,-1.8274,-1.8273,-1.8273,0,-1.7989,-1.7984,-1.8061,-1.8078,-1.8083,-1.8137,-1.8152,-1.8194,-1.8195,-1.8254,-1.8267,-1.8269,-1.8319,-1.8314,-1.8371,-1.8368,-1.8457,-1.8445,-1.8448,-1.8446,-1.8506,-1.8501,-1.8702,-1.8728,-1.8549,-1.8551,-1.8552,0,-1.8078,-1.8128,-1.815,-1.8178,-1.8193,-1.8239,-1.8266,-1.8253,-1.8282,-1.8315,-1.8354,-1.8401,-1.8438,-1.8519,-1.8526,-1.8569,-1.8559,-1.8626,-1.8565,-1.8568,-1.856,-1.8557,-1.8562,-1.8639,-1.8641,-1.8642,-1.8644,0,-1.8238,-1.8233,-1.8273,-1.8312,-1.8345,-1.8375,-1.8403,-1.8428,-1.8417,-1.8452,-1.8502,-1.8531,-1.8587,-1.8635,-1.8676,-1.8689,-1.8665,-1.8663,-1.8679,-1.8685,-1.8685,-1.8686,-1.8481,-1.8658,-1.8657,-1.8656,-1.8655,-1.8655,-1.8355,-1.8398,-1.8419,-1.8465,-1.8483,-1.851,-1.855,-1.8555,-1.8596,-1.8641,-1.8631,-1.8687,-1.8711,-1.8763,-1.878,-1.8825,-1.88,-1.8824,-1.883,-1.8836,-1.8843,-1.8677,-1.8832,-1.8832,-1.8831,-1.8831,-1.8831,0,-1.8514,-1.8525,-1.8567,-1.8606,-1.8641,-1.8614,-1.8643,-1.8675,-1.8724,-1.8748,-1.8785,-1.8842,-1.8888,-1.8897,-1.8941,-1.8975,-1.8965,-1.8987,-1.8984,-1.8988,-1.8862,-1.8844,-1.8994,-1.8994,-1.8994,-1.8994,-1.8994,-1.8994,-1.86,-1.8671,-1.8669,-1.8749,-1.876,-1.8814,-1.8833,-1.8857,-1.8876,-1.8941,-1.8978,-1.8983,-1.9002,-1.9046,-1.9087,-1.9088,-1.9106,-1.9132,-1.913,-1.9013,-1.8997,-1.8981,-1.8964,-1.9136,-1.9136,-1.9251,-1.9252,-1.9253]},{"header":{"parameterUnit":"m.s-1","parameterCategory":1,"la1":30.2991,"la2":30.254,"lo1":-89.0895,"lo2":-89.0444,"dy":0.0017,"dx":0.0017,"nx":28,"ny":28,"refTime":"2025-12-16T03:00:00:Z","depth":0,"parameterNumber":3,"parameterNumberName":"V-component_of_WINDS"},"data":[0,0,0,0,0,0,0,0,0,0,0,0,0,0,0,0,0,0,0,0,0,0,0,0,0,0,0,0,0,0,0,0,0,0,0,0,0,0,0,0,0,0,0,0,0,0,0,0,0,0,0,0,0,0,0,0,0,0,-1.5156,-1.5156,0,-1.5089,-1.5088,-1.5087,-1.505,-1.505,-1.505,-1.5049,-1.4979,-1.4977,-1.4975,0,0,0,0,0,0,0,0,0,0,0,0,0,-1.5249,-1.5247,-1.5156,-1.5156,-1.5155,-1.5089,-1.5088,-1.5087,-1.505,-1.505,-1.5049,-1.5049,-1.4979,-1.4977,-1.4975,0,0,0,0,0,0,0,0,0,0,0,0,0,-1.5198,-1.5247,-1.5157,-1.5128,-1.5125,-1.5089,-1.5088,-1.5087,-1.505,-1.505,-1.5049,-1.5049,-1.498,-1.4977,-1.4975,-1.4962,0,0,-1.4967,-1.4966,0,0,0,0,0,0,0,0,-1.5201,-1.5194,-1.5133,-1.513,-1.5126,-1.5078,-1.5095,-1.5045,-1.505,-1.5078,-1.5049,-1.5049,-1.5012,-1.5006,-1.4994,-1.4958,-1.4955,-1.4966,-1.4965,-1.4964,-1.4963,0,0,0,0,0,0,0,-1.5204,-1.5197,-1.513,-1.5132,-1.5128,-1.5117,-1.511,-1.5085,-1.5047,-1.5076,-1.5073,-1.5065,-1.501,-1.4997,-1.4992,-1.4954,-1.4967,-1.4964,-1.4963,-1.4961,-1.4901,-1.4901,0,0,0,0,0,0,-1.5213,-1.52,-1.5132,-1.5128,-1.5164,-1.5116,-1.5108,-1.5093,-1.5047,-1.504,-1.5066,-1.5064,-1.5001,-1.4995,-1.499,-1.4969,-1.4964,-1.4961,-1.496,-1.4901,-1.4901,-1.4901,0,0,0,0,0,0,-1.5215,-1.5207,-1.5134,-1.5163,-1.5153,-1.5115,-1.5099,-1.5092,-1.5079,-1.5039,-1.5032,-1.506,-1.5001,-1.4993,-1.4968,-1.4966,-1.496,-1.4958,-1.4901,-1.4901,-1.4901,-1.4929,0,0,0,0,0,0,-1.5218,-1.5208,-1.5204,-1.5163,-1.5152,-1.5116,-1.5099,-1.5091,-1.5075,-1.5072,-1.5032,-1.5025,-1.5,-1.4972,-1.4966,-1.4962,-1.4956,-1.4901,-1.4901,-1.4901,-1.4928,-1.493,-1.4931,0,0,0,0,0,-1.5221,-1.5215,-1.5204,-1.5196,-1.5146,-1.5116,-1.5109,-1.5081,-1.5075,-1.5069,-1.5043,-1.5026,-1.4967,-1.497,-1.4962,-1.4958,-1.4901,-1.4901,-1.4901,-1.4927,-1.493,-1.4931,0,0,0,0,0,0,-1.5256,-1.5209,-1.5196,-1.5177,-1.5151,-1.5109,-1.5102,-1.5085,-1.506,-1.5058,-1.5024,-1.5015,-1.4993,-1.4973,-1.4977,-1.4941,-1.4932,-1.493,-1.4955,-1.4957,-1.4958,-1.4963,-1.4953,0,0,0,0,0,-1.5262,-1.5242,-1.5202,-1.5188,-1.5176,-1.5141,-1.5127,-1.5108,-1.5079,-1.5067,-1.504,-1.5011,-1.4986,-1.497,-1.4945,-1.4925,-1.4914,-1.4918,-1.4919,-1.4921,-1.492,-1.4904,-1.4905,-1.4901,-1.4901,-1.4901,0,0,-1.5273,-1.5244,-1.5234,-1.5194,-1.5172,-1.5151,-1.5132,-1.5111,-1.5095,-1.5064,-1.5038,-1.5017,-1.4983,-1.4959,-1.4947,-1.4942,-1.4918,-1.4921,-1.4923,-1.492,-1.4904,-1.4905,-1.4905,-1.4901,-1.4901,-1.4901,0,0,-1.5282,-1.5259,-1.5244,-1.5222,-1.5187,-1.5164,-1.516,-1.5121,-1.5105,-1.5079,-1.5055,-1.5034,-1.4992,-1.4968,-1.495,-1.4947,-1.493,-1.494,-1.4949,-1.4934,-1.4935,-1.4935,-1.4931,-1.4931,-1.4939,-1.4939,-1.4939,0,-1.53,-1.5268,-1.5239,-1.5219,-1.5201,-1.5172,-1.5155,-1.5134,-1.5093,-1.5081,-1.5075,-1.502,-1.4995,-1.4964,-1.4963,-1.4951,-1.4944,-1.4944,-1.4937,-1.4937,-1.4936,-1.4933,-1.4932,-1.494,-1.494,-1.494,-1.494,0,-1.529,-1.5269,-1.526,-1.5221,-1.5202,-1.5184,-1.5151,-1.5135,-1.5117,-1.5093,-1.5065,-1.5034,-1.5001,-1.4992,-1.4975,-1.4958,-1.4955,-1.4944,-1.4934,-1.4939,-1.4935,-1.4933,-1.4942,-1.4942,-1.4941,-1.4941,0,0,-1.5321,-1.5264,-1.5261,-1.5242,-1.5201,-1.5183,-1.5162,-1.5129,-1.5115,-1.5088,-1.5068,-1.5032,-1.502,-1.5,-1.4979,-1.4967,-1.4963,-1.4956,-1.4955,-1.4957,-1.4939,-1.4947,-1.4946,-1.4951,-1.4951,-1.495,-1.4942,0,-1.5323,-1.5285,-1.5257,-1.5229,-1.5207,-1.5178,-1.5159,-1.5131,-1.5108,-1.5085,-1.5059,-1.5033,-1.5021,-1.5008,-1.4994,-1.4966,-1.4959,-1.4967,-1.4931,-1.493,-1.4939,-1.4945,-1.4954,-1.4947,-1.494,-1.494,-1.494,0,-1.532,-1.5293,-1.5263,-1.5221,-1.5211,-1.5195,-1.5161,-1.514,-1.5107,-1.509,-1.5067,-1.5045,-1.5019,-1.5012,-1.4975,-1.4981,-1.4964,-1.4948,-1.4947,-1.4942,-1.4935,-1.4938,-1.4944,-1.4943,-1.4937,-1.4937,-1.4938,0,-1.5343,-1.5298,-1.5274,-1.5258,-1.521,-1.5199,-1.5178,-1.5144,-1.5126,-1.5096,-1.5083,-1.5051,-1.5033,-1.5007,-1.4976,-1.4974,-1.4942,-1.4932,-1.4926,-1.4927,-1.492,-1.4921,-1.4922,-1.4911,-1.4911,-1.4911,-1.4912,0,-1.5347,-1.5329,-1.5283,-1.5268,-1.5246,-1.5213,-1.5193,-1.5169,-1.5139,-1.5117,-1.509,-1.507,-1.5031,-1.5005,-1.498,-1.4952,-1.4945,-1.493,-1.4923,-1.4931,-1.4933,-1.4919,-1.4919,-1.4911,-1.4911,-1.4911,-1.4911,0,-1.5369,-1.5337,-1.5308,-1.5264,-1.5253,-1.5239,-1.52,-1.5183,-1.5158,-1.5131,-1.5123,-1.5083,-1.5051,-1.5017,-1.4975,-1.4958,-1.493,-1.4922,-1.4942,-1.4938,-1.4933,-1.4933,-1.4925,-1.4921,-1.4914,-1.4914,-1.4914,0,-1.5373,-1.5358,-1.5312,-1.5296,-1.5276,-1.5251,-1.5231,-1.5197,-1.5177,-1.5136,-1.5124,-1.509,-1.5062,-1.5012,-1.4978,-1.4945,-1.4934,-1.4933,-1.4929,-1.4937,-1.4932,-1.4933,-1.493,-1.4935,-1.4935,-1.4935,-1.4936,0,-1.5383,-1.5368,-1.5341,-1.5308,-1.5286,-1.5258,-1.5229,-1.5217,-1.5177,-1.5156,-1.5124,-1.5101,-1.5057,-1.5023,-1.4985,-1.4961,-1.4941,-1.4937,-1.4933,-1.4942,-1.4953,-1.4945,-1.4944,-1.4938,-1.4937,-1.4937,-1.4937,-1.4937,-1.5395,-1.538,-1.5344,-1.5315,-1.5289,-1.5263,-1.5244,-1.5216,-1.5188,-1.515,-1.5131,-1.5098,-1.5061,-1.5008,-1.4985,-1.4957,-1.4951,-1.4947,-1.4945,-1.4944,-1.4945,-1.4958,-1.495,-1.495,-1.495,-1.495,-1.495,0,-1.5402,-1.5377,-1.5351,-1.5311,-1.5287,-1.527,-1.5237,-1.5217,-1.5189,-1.5157,-1.5129,-1.509,-1.5056,-1.5019,-1.4983,-1.4968,-1.4957,-1.4959,-1.4959,-1.4954,-1.4954,-1.496,-1.4968,-1.4968,-1.4968,-1.4968,-1.4968,-1.4968,-1.5403,-1.5376,-1.5356,-1.5314,-1.529,-1.5257,-1.5239,-1.5213,-1.5188,-1.5146,-1.5118,-1.5094,-1.5059,-1.5019,-1.4987,-1.4976,-1.4964,-1.4968,-1.4955,-1.4955,-1.4954,-1.4953,-1.4958,-1.4966,-1.4966,-1.4957,-1.4957,-1.4957]}]]